TimeCDT,TemperatureF,Dew PointF,Humidity,Sea Level PressureIn,VisibilityMPH,Wind Direction,Wind SpeedMPH,Gust SpeedMPH,PrecipitationIn,Events,Conditions,WindDirDegrees,DateUTC
12:07 AM,77.0,75.2,94,30.03,1.5,Calm,Calm,-,N/A,,Clear,0,2013-08-03 05:07:00
12:26 AM,75.2,75.2,100,30.03,3.0,Calm,Calm,-,N/A,,Clear,0,2013-08-03 05:26:00
12:49 AM,75.2,75.2,100,30.02,1.5,Calm,Calm,-,N/A,,Clear,0,2013-08-03 05:49:00
12:50 AM,75.2,75.2,100,30.02,1.2,Calm,Calm,-,N/A,,Partly Cloudy,0,2013-08-03 05:50:00
12:53 AM,75.9,75.0,97,30.03,0.8,Calm,Calm,-,N/A,,Mist,0,2013-08-03 05:53:00
1:05 AM,75.2,75.2,100,30.01,0.5,Calm,Calm,-,N/A,Fog,Fog,0,2013-08-03 06:05:00
1:14 AM,75.2,75.2,100,30.01,0.5,Calm,Calm,-,N/A,Fog,Fog,0,2013-08-03 06:14:00
1:19 AM,75.2,75.2,100,30.01,1.0,Calm,Calm,-,N/A,,Clear,0,2013-08-03 06:19:00
1:27 AM,75.2,75.2,100,30.01,0.5,Calm,Calm,-,N/A,Fog,Fog,0,2013-08-03 06:27:00
1:34 AM,75.2,75.2,100,30.01,2.0,Calm,Calm,-,N/A,,Clear,0,2013-08-03 06:34:00
1:49 AM,75.2,75.2,100,30.00,1.5,Calm,Calm,-,N/A,,Clear,0,2013-08-03 06:49:00
1:53 AM,75.0,75.0,100,30.01,2.5,Calm,Calm,-,N/A,,Clear,0,2013-08-03 06:53:00
2:00 AM,75.2,75.2,100,30.00,3.0,Calm,Calm,-,N/A,,Clear,0,2013-08-03 07:00:00
2:53 AM,75.0,73.9,96,29.99,3.0,Calm,Calm,-,N/A,,Clear,0,2013-08-03 07:53:00
3:00 AM,75.2,73.4,94,29.99,1.8,Calm,Calm,-,N/A,,Clear,0,2013-08-03 08:00:00
3:12 AM,75.2,73.4,94,29.99,3.0,Calm,Calm,-,N/A,,Clear,0,2013-08-03 08:12:00
3:22 AM,75.2,73.4,94,29.99,2.5,Calm,Calm,-,N/A,,Clear,0,2013-08-03 08:22:00
3:33 AM,75.2,73.4,94,29.99,4.0,Calm,Calm,-,N/A,,Clear,0,2013-08-03 08:33:00
3:53 AM,75.0,73.9,96,30.00,4.0,Calm,Calm,-,N/A,,Clear,0,2013-08-03 08:53:00
4:09 AM,75.2,73.4,94,29.99,4.0,Calm,Calm,-,N/A,,Scattered Clouds,0,2013-08-03 09:09:00
4:18 AM,75.2,73.4,94,29.99,3.0,Calm,Calm,-,N/A,,Mostly Cloudy,0,2013-08-03 09:18:00
4:26 AM,75.2,73.4,94,29.99,1.5,Calm,Calm,-,N/A,,Mostly Cloudy,0,2013-08-03 09:26:00
4:34 AM,75.2,73.4,94,29.99,0.5,Calm,Calm,-,N/A,Fog,Fog,0,2013-08-03 09:34:00
4:49 AM,73.4,73.4,100,29.99,0.5,Calm,Calm,-,N/A,Fog,Fog,0,2013-08-03 09:49:00
4:53 AM,75.0,73.9,96,30.00,0.5,Calm,Calm,-,N/A,Fog,Fog,0,2013-08-03 09:53:00
5:03 AM,73.4,73.4,100,30.00,0.2,Calm,Calm,-,N/A,Fog,Fog,0,2013-08-03 10:03:00
5:25 AM,75.2,73.4,94,30.00,0.5,Calm,Calm,-,N/A,Fog,Fog,0,2013-08-03 10:25:00
5:35 AM,73.4,73.4,100,30.00,0.2,Calm,Calm,-,N/A,Fog,Fog,0,2013-08-03 10:35:00
5:45 AM,73.4,73.4,100,30.00,0.8,Calm,Calm,-,N/A,,Mist,0,2013-08-03 10:45:00
5:53 AM,73.9,73.9,100,30.01,0.2,Calm,Calm,-,N/A,Fog,Fog,0,2013-08-03 10:53:00
6:53 AM,73.9,73.9,100,30.02,0.5,Calm,Calm,-,N/A,Fog,Fog,0,2013-08-03 11:53:00
7:02 AM,75.2,75.2,100,30.02,1.2,Calm,Calm,-,N/A,,Mostly Cloudy,0,2013-08-03 12:02:00
7:15 AM,75.2,75.2,100,30.02,2.0,Calm,Calm,-,N/A,,Scattered Clouds,0,2013-08-03 12:15:00
7:27 AM,75.2,75.2,100,30.02,3.0,Calm,Calm,-,N/A,,Partly Cloudy,0,2013-08-03 12:27:00
7:34 AM,75.2,75.2,100,30.02,2.5,Calm,Calm,-,N/A,,Partly Cloudy,0,2013-08-03 12:34:00
7:41 AM,77.0,77.0,100,30.03,3.0,Calm,Calm,-,N/A,,Partly Cloudy,0,2013-08-03 12:41:00
7:53 AM,78.1,77.0,96,30.04,5.0,Calm,Calm,-,N/A,,Partly Cloudy,0,2013-08-03 12:53:00
8:53 AM,84.0,79.0,85,30.05,10.0,North,4.6,-,N/A,,Clear,350,2013-08-03 13:53:00
9:53 AM,86.0,77.0,74,30.06,10.0,Calm,Calm,-,N/A,,Scattered Clouds,0,2013-08-03 14:53:00
10:08 AM,87.8,77.0,70,30.06,10.0,Calm,Calm,-,N/A,,Mostly Cloudy,0,2013-08-03 15:08:00
10:20 AM,87.8,78.8,75,30.06,10.0,WNW,4.6,-,N/A,,Scattered Clouds,290,2013-08-03 15:20:00
10:53 AM,89.1,75.9,65,30.07,10.0,Variable,3.5,-,N/A,,Partly Cloudy,0,2013-08-03 15:53:00
11:53 AM,90.0,71.1,54,30.07,10.0,Calm,Calm,-,N/A,,Clear,0,2013-08-03 16:53:00
12:53 PM,93.0,70.0,47,30.06,10.0,NNE,5.8,-,N/A,,Partly Cloudy,20,2013-08-03 17:53:00
1:53 PM,93.9,68.0,43,30.05,10.0,NNE,3.5,-,N/A,,Clear,20,2013-08-03 18:53:00
2:53 PM,91.9,73.9,55,30.04,10.0,Variable,3.5,-,N/A,,Partly Cloudy,0,2013-08-03 19:53:00
3:53 PM,93.0,70.0,47,30.01,10.0,North,8.1,-,N/A,,Clear,350,2013-08-03 20:53:00
4:53 PM,91.9,70.0,48,30.01,10.0,West,3.5,-,N/A,,Clear,270,2013-08-03 21:53:00
5:53 PM,88.0,75.9,67,30.01,10.0,SW,4.6,-,N/A,,Clear,230,2013-08-03 22:53:00
6:53 PM,86.0,75.9,72,30.03,10.0,SW,3.5,-,N/A,,Clear,220,2013-08-03 23:53:00
7:53 PM,84.0,77.0,79,30.04,10.0,South,3.5,-,N/A,,Clear,180,2013-08-04 00:53:00
8:53 PM,82.0,78.1,88,30.05,10.0,Calm,Calm,-,N/A,,Clear,0,2013-08-04 01:53:00
9:53 PM,81.0,78.1,91,30.06,9.0,Calm,Calm,-,N/A,,Clear,0,2013-08-04 02:53:00
10:53 PM,80.1,78.1,94,30.07,8.0,Calm,Calm,-,N/A,,Clear,0,2013-08-04 03:53:00
11:53 PM,79.0,78.1,97,30.06,6.0,Calm,Calm,-,N/A,,Clear,0,2013-08-04 04:53:00